User: anonymous   Login
Location: Arbon
(43.0005°N, 0.7472°E)
Time: 11:44:43
(UTC+00:00)
Language:

Meteor 1-16 Rocket - Orbit

View from above orbital plane
View from above orbital plane
View from above satellite
View from above satellite

Ground track
Ground track

The orbit data is extracted from the following two-line orbital elements,

1  7210U 74011B   20293.71502721 -.00000009 +00000-0 -11410-4 0  9996
2  7210 081.2332 292.4726 0081379 146.3115 214.3269 14.13095311402340
Epoch (UTC): 19 October 2020 17:09:38
Eccentricity: 0.0081379
inclination: 81.2332°
perigee height: 790 km
apogee height: 907 km
right ascension of ascending node: 292.4726°
argument of perigee: 146.3115°
revolutions per day: 14.13095311
mean anomaly at epoch: 214.3269°
orbit number at epoch: 40234

The dashed part of the orbit path shows where the satellite is in the earth's shadow,  

DLR